SCP
0 0 0 0 0 0 0 0 0 0 0 0 0 0 0 0 0 0 0 0 0 0
0 0 0 0 0 0 0 0 0 0 0 0 0 0 0 0 0 0 0 0 0 0
0 0 0 0 0 0 0 0 0 0 0 0 0 0 0 0 0 0 0 0 0 0
0 0 0 0 0 0 0 0 0 0 0 0 0 0 0 0 0 0 0 0 0 0
0 0 0 0 0 0 0 0 0 0 0 0 0 0 0 0 0 0 0 0 0 0
0 0 0 0 0 0 0 0 0 0 0 0 0 0 0 0 0 0 0 0 0 0
0 0 0 0 0 0 0 0 0 0 0 0 0 0 0 0 0 0 0 0 0 0
0 0 0 0 0 0 0 0 0 0 0 0 0 0 0 0 0 0 0 0 0 0
0 0 0 0 0 0 0 0 0 0 0 0 0 0 0 0 0 0 0 0 0 0
0 0 0 0 0 0 0 0 0 0 0 0 0 0 0 0 0 0 0 0 0 0
0 0 0 0 0 0 0 0 0 0 0 0 0 0 0 0 0 0 0 0 0 0
0 0 0 0 0 0 0 0 0 0 0 0 0 0 0 0 0 0 0 0 0 0
0 0 0 0 0 0 0 0 0 0 0 0 0 0 0 0 0 0 0 0 0 0
0 0 0 0 0 0 0 0 0 0 0 0 0 0 0 0 0 0 0 0 0 0
Wind_Speed_500mb
57 44 41 34 33 32 32 32 31 28 22 16 14 11 9 6 3 3 7 9 11 14
49 45 39 38 36 37 37 36 33 30 23 19 17 14 10 6 7 8 9 10 13 16
43 40 40 39 39 41 40 39 36 30 25 21 19 16 12 11 10 11 11 12 15 17
43 43 42 42 42 42 42 42 37 30 26 25 23 18 15 15 13 12 13 15 17 19
44 43 43 44 46 45 45 41 35 31 29 28 25 21 20 18 16 14 16 17 18 21
43 44 45 48 49 49 45 41 37 35 30 30 29 26 24 20 19 18 18 19 19 22
43 44 47 48 49 48 44 42 38 32 32 36 37 31 27 25 24 22 22 21 22 24
44 47 49 51 51 48 45 41 35 35 38 42 38 34 32 32 29 28 27 26 25 27
49 52 52 53 50 49 44 39 38 39 40 40 42 44 42 39 35 34 36 32 30 31
52 52 52 51 53 49 44 39 38 37 40 45 48 50 48 45 43 43 43 40 37 36
53 53 52 54 52 48 44 39 38 40 42 49 53 54 56 52 51 51 50 46 44 41
52 53 54 55 53 49 44 39 40 41 45 51 51 55 59 61 60 59 59 52 51 47
49 50 51 53 53 46 41 41 40 46 47 48 54 56 60 64 67 69 66 58 54 55
46 46 48 50 49 45 43 45 48 49 49 54 56 57 61 66 73 70 66 61 59 58
Wind_Direction_500mb
227 229 232 231 234 226 225 222 216 214 215 215 222 211 211 215 219 276 304 327 330 337
221 226 232 229 223 221 221 218 213 214 213 218 215 217 222 237 263 279 301 315 332 333
223 225 226 224 224 221 217 214 212 212 215 220 214 221 228 237 254 280 302 317 322 328
222 221 221 220 218 217 216 213 210 213 219 219 217 221 234 248 256 281 303 309 320 320
222 220 220 217 214 213 214 211 210 217 222 220 219 225 234 242 263 277 286 304 312 314
218 218 216 213 213 213 211 210 214 219 222 223 225 230 237 246 252 263 283 290 297 308
217 216 213 213 214 213 209 213 217 222 225 227 227 231 238 242 248 260 271 287 295 300
214 211 211 213 213 210 209 215 218 227 231 231 232 238 242 244 249 258 267 273 287 293
209 209 210 213 211 210 211 218 226 233 238 239 238 239 242 246 251 256 262 271 281 287
207 210 211 212 211 211 216 225 235 241 244 246 245 244 245 248 252 257 263 270 277 285
209 211 212 214 213 216 222 232 241 246 249 250 248 248 251 252 255 260 265 270 277 283
212 214 215 215 215 220 228 237 246 254 256 257 260 257 257 257 258 262 266 270 275 282
216 218 220 220 220 226 234 244 250 254 258 263 264 262 261 262 261 263 265 271 276 282
219 222 224 223 225 232 240 247 252 258 263 265 267 268 266 264 266 267 269 273 277 281
Wind_Speed_850mb
57 44 41 34 33 32 32 32 31 28 22 16 14 11 9 6 3 3 7 9 11 14
49 45 39 38 36 37 37 36 33 30 23 19 17 14 10 6 7 8 9 10 13 16
43 40 40 39 39 41 40 39 36 30 25 21 19 16 12 11 10 11 11 12 15 17
43 43 42 42 42 42 42 42 37 30 26 25 23 18 15 15 13 12 13 15 17 19
44 43 43 44 46 45 45 41 35 31 29 28 25 21 20 18 16 14 16 17 18 21
43 44 45 48 49 49 45 41 37 35 30 30 29 26 24 20 19 18 18 19 19 22
43 44 47 48 49 48 44 42 38 32 32 36 37 31 27 25 24 22 22 21 22 24
44 47 49 51 51 48 45 41 35 35 38 42 38 34 32 32 29 28 27 26 25 27
49 52 52 53 50 49 44 39 38 39 40 40 42 44 42 39 35 34 36 32 30 31
52 52 52 51 53 49 44 39 38 37 40 45 48 50 48 45 43 43 43 40 37 36
53 53 52 54 52 48 44 39 38 40 42 49 53 54 56 52 51 51 50 46 44 41
52 53 54 55 53 49 44 39 40 41 45 51 51 55 59 61 60 59 59 52 51 47
49 50 51 53 53 46 41 41 40 46 47 48 54 56 60 64 67 69 66 58 54 55
46 46 48 50 49 45 43 45 48 49 49 54 56 57 61 66 73 70 66 61 59 58
Wind_Direction_850mb
227 229 232 231 234 226 225 222 216 214 215 215 222 211 211 215 219 276 304 327 330 337
221 226 232 229 223 221 221 218 213 214 213 218 215 217 222 237 263 279 301 315 332 333
223 225 226 224 224 221 217 214 212 212 215 220 214 221 228 237 254 280 302 317 322 328
222 221 221 220 218 217 216 213 210 213 219 219 217 221 234 248 256 281 303 309 320 320
222 220 220 217 214 213 214 211 210 217 222 220 219 225 234 242 263 277 286 304 312 314
218 218 216 213 213 213 211 210 214 219 222 223 225 230 237 246 252 263 283 290 297 308
217 216 213 213 214 213 209 213 217 222 225 227 227 231 238 242 248 260 271 287 295 300
214 211 211 213 213 210 209 215 218 227 231 231 232 238 242 244 249 258 267 273 287 293
209 209 210 213 211 210 211 218 226 233 238 239 238 239 242 246 251 256 262 271 281 287
207 210 211 212 211 211 216 225 235 241 244 246 245 244 245 248 252 257 263 270 277 285
209 211 212 214 213 216 222 232 241 246 249 250 248 248 251 252 255 260 265 270 277 283
212 214 215 215 215 220 228 237 246 254 256 257 260 257 257 257 258 262 266 270 275 282
216 218 220 220 220 226 234 244 250 254 258 263 264 262 261 262 261 263 265 271 276 282
219 222 224 223 225 232 240 247 252 258 263 265 267 268 266 264 266 267 269 273 277 281